FENGYUN 1C DEB

Satellite information

Favourite Embed

Satellite Type and Status

DEBRISIN ORBIT

Key statistics

Satellite FENGYUN 1C DEB at a glance.

Uptime

9661

Days in orbit

Revolutions

≈ 14.2

Per day

Orbit

SSO

Sun Synchronous Orbit

Inclination

99.2

Latest

Satellite identification and parameters

Extended collection of information and parameters for FENGYUN 1C DEB.

Object identification

Identified? True

Debris? True

Object name: FENGYUN 1C DEB

International designator: 1999-025GJ

Object number (NORAD): 29888

Object ID (CCSDS): 29888

Country: PEOPLES REPUBLIC OF CHINA (PRC)

Current information (Y/N): Y

RCS size: SMALL

Orbital parameters

Period: 101.433 minutes

Inclination: 99.1952 deg

SMA: 7204.653 km

Apoapsis: 1024.755 km

Periapsis: 628.282 km

RAAN: 124.5134 deg

Eccentricy: 0.02751509

Argument of periapsis: 175.2457 deg

Mean anomaly: 185.1432 deg

Mean motion: 14.19655991 rev/day

Mean motion (dot): 0.00003177 rev/day2

B* drag term: 0.001045581 1/REarth

Two-line elements (TLE)

Creation date: Oct. 21, 2025, 3:26 a.m.

Reference frame: TEME

Reference center: EARTH

Epoch: Oct. 20, 2025, 9:44 p.m. UTC

TLE line 0: 0 FENGYUN 1C DEB

TLE line 1: 1 29888U 99025GJ 25293.90570309 .00003177 00000-0 10456-2 0 9990

TLE line 2: 2 29888 99.1952 124.5134 0275151 175.2457 185.1432 14.19655991967549

Live tracking on map

Real-time ground track for satellite FENGYUN 1C DEB.

In-orbit conjunctions

A list of the most updated potential collisions computed for object FENGYUN 1C DEB.

Target Orbit TCA Probability of collision Miss distance Type
METEOR 2-11 LEO 2025-02-18 19:40:01 0.0001463054 54.0 (m) PAYLOAD
COSMOS 1226 LEO 2025-01-22 13:01:56 0.01144245 63.0 (m) PAYLOAD
FENGYUN 1C DEB SSO 2024-09-28 05:58:31 0.0005496907 175.0 (m) DEBRIS

Associated space launch

Chinese polar orbiting meteorological satellite

FENGYUN 1C DEB was lifted into orbit during the mission ‘Long March 4B | Feng Yun 1C’, on board a Long March 4B space rocket.

The launch took place on May 10, 1999, 1:33 a.m. from Launch Complex 7.

For more information about the launch, click the button.

Launch to space Long March 4B | Feng Yun 1C
Long March 4B | Feng Yun 1C

Agency: N/A

Status: Launch Successful

Launch date: May 10, 1999, 1:33 a.m. UTC

Rocket: Long March 4B

Launch pad: Launch Complex 7

Location: Taiyuan Satellite Launch Center, People's Republic of China

...

Latest news about this satellite

There are no fresh news available about this satellite. Check back as we update our databases every day.


Newsletter sign-up

Weekly statistics, charts and insights to help you stay on top of the space industry.